Location: Eindhoven
(51.4416°N, 5.4697°E)
Time: 02:55:15
(UTC+01:00)

Tiros 1 - Visible Passes

Search period start: 17 November 2019 00:00
Search period end: 27 November 2019 00:00
Orbit: 630 x 664 km, 48.4° (Epoch: 16 November)

Date Brightness Start Highest point End Pass type
(mag) Time Alt. Az. Time Alt. Az. Time Alt. Az.
17 Nov 7.4 18:51:40 10° W 18:56:14 58° S 18:57:44 38° SE visible
17 Nov 9.6 20:33:50 10° W 20:35:24 19° WSW 20:35:24 19° WSW visible
18 Nov 7.5 17:35:41 10° WSW 17:40:15 60° S 17:44:51 10° E visible
18 Nov 7.7 19:17:41 10° W 19:22:09 47° SSW 19:22:43 45° S visible
18 Nov 10.2 21:00:16 10° W 21:00:23 10° W 21:00:23 10° W visible
19 Nov 7.5 18:01:40 10° W 18:06:13 59° S 18:10:05 14° ESE visible
19 Nov 8.4 19:43:49 10° W 19:47:45 33° SSW 19:47:45 33° SSW visible
20 Nov 7.8 18:27:40 10° W 18:32:09 49° SSW 18:35:12 19° SE visible
20 Nov 9.3 20:10:11 10° W 20:12:52 20° SW 20:12:52 20° SW visible
21 Nov 7.6 17:11:39 10° W 17:16:12 59° S 17:20:47 10° ESE visible
21 Nov 8.4 18:53:47 10° W 18:58:00 35° SSW 19:00:25 21° SSE visible
21 Nov 10.0 20:37:37 10° WSW 20:38:06 11° WSW 20:38:06 11° WSW visible
22 Nov 7.9 17:37:39 10° W 17:42:08 50° SSW 17:46:38 10° ESE visible
22 Nov 9.2 19:20:07 10° W 19:23:42 22° SSW 19:25:46 17° S visible
23 Nov 8.5 18:03:45 10° W 18:08:00 36° SSW 18:12:15 10° SE visible
23 Nov 9.8 19:47:19 10° WSW 19:49:15 12° SW 19:51:12 10° SSW visible
24 Nov 9.3 18:30:04 10° W 18:33:44 23° SSW 18:37:24 10° SSE visible
25 Nov 8.6 17:13:43 10° W 17:17:59 37° SSW 17:22:17 10° SE visible
25 Nov 9.9 18:57:04 10° WSW 18:59:17 13° SW 19:01:30 10° SSW visible
26 Nov 9.4 17:40:00 10° W 17:43:43 24° SSW 17:47:29 10° SSE visible
